{"data":{"norad_id":47555,"intl_designator":"2021-009H","name":"STARLINK-1954","alt_names":[],"object_type":"PAYLOAD","status":"ACTIVE","operator":null,"country":"US","launch_date":"2021-02-04","launch_site_code":"AFETR","launch_vehicle":null,"mission":null,"orbit_class":"UNKNOWN","rcs_meters":null,"size_class":null,"mass_kg":null,"dimensions":null,"purposes":["comms"],"wikipedia_slug":null,"has_3d_model":false,"image_url":null,"decayed_at":null,"tle_current":{"epoch":"2026-05-25T00:29:58.427232Z","epoch_age_seconds":80127,"freshness":"FRESH","line1":"1 47555U 21009H   26145.02081513  .00047671  00000+0  12358-2 0  9991","line2":"2 47555  53.0535  12.1649 0003294  93.3411 266.7969 15.38568551292680","mean_motion":15.38568551,"eccentricity":0.0003294,"inclination_deg":53.0535,"raan_deg":12.1649,"arg_perigee_deg":93.3411,"mean_anomaly_deg":266.7969,"bstar":0.0012358,"rev_number":29268,"period_min":93.593489809997,"perigee_km":448.09210961103,"apogee_km":452.5907111878,"semimajor_km":6828.4784103994,"source":"CELESTRAK","updated_at":"2026-05-25T13:38:16.556080Z"}}}